Location: Bittkow
(50.3000°N, 19.0000°E)
Time: 12:39:09
(UTC+00:00)

Cosmos 2369 - Pass Details

Date: 19 September 2020
Orbit: 839 x 856 km, 71.0° (Epoch: 22 October)

Event Time Altitude Azimuth Distance (km) Brightness Sun altitude
Exits shadow 01:54:35 42° 186° (S) 1,206 4.2 -23.5°
Maximum altitude 01:56:32 71° 115° (ESE) 906 3.8 -23.3°
Drops below altitude 10° 02:02:15 10° 33° (NNE) 2,499 7.1 -22.5°
Sets 02:04:43 0° 31° (NNE) 3,439 7.9 -22.2°
